TimeEDT,TemperatureF,Dew PointF,Humidity,Sea Level PressureIn,VisibilityMPH,Wind Direction,Wind SpeedMPH,Gust SpeedMPH,PrecipitationIn,Events,Conditions,WindDirDegrees,DateUTC
12:43 AM,42.1,41.0,96,30.36,1.5,Calm,Calm,-,N/A,,Clear,0,2013-10-09 04:43:00
12:47 AM,42.8,41.0,93,30.36,0.8,Calm,Calm,-,N/A,,Clear,0,2013-10-09 04:47:00
12:52 AM,42.1,39.9,92,30.36,0.8,Calm,Calm,-,N/A,,Clear,0,2013-10-09 04:52:00
1:05 AM,41.0,39.0,93,30.36,1.5,Calm,Calm,-,N/A,,Clear,0,2013-10-09 05:05:00
1:15 AM,42.1,39.9,92,30.37,1.0,Calm,Calm,-,N/A,,Clear,0,2013-10-09 05:15:00
1:28 AM,41.0,39.9,96,30.37,2.5,Calm,Calm,-,N/A,,Clear,0,2013-10-09 05:28:00
1:35 AM,41.0,39.0,93,30.37,6.0,Calm,Calm,-,N/A,,Clear,0,2013-10-09 05:35:00
1:47 AM,39.2,39.2,100,30.37,1.8,Calm,Calm,-,N/A,,Clear,0,2013-10-09 05:47:00
1:52 AM,39.9,39.0,97,30.38,1.0,Calm,Calm,-,N/A,,Clear,0,2013-10-09 05:52:00
2:05 AM,39.9,37.9,93,30.37,2.0,Calm,Calm,-,N/A,,Clear,0,2013-10-09 06:05:00
2:14 AM,39.9,39.0,97,30.37,1.2,Calm,Calm,-,N/A,,Clear,0,2013-10-09 06:14:00
2:22 AM,39.9,37.9,93,30.37,1.0,Calm,Calm,-,N/A,,Mist,0,2013-10-09 06:22:00
2:35 AM,39.9,37.9,93,30.37,0.5,Calm,Calm,-,N/A,Fog,Fog,0,2013-10-09 06:35:00
2:44 AM,39.9,37.9,93,30.37,1.2,Calm,Calm,-,N/A,,Partly Cloudy,0,2013-10-09 06:44:00
2:46 AM,39.2,37.4,93,30.37,2.0,Calm,Calm,-,N/A,,Partly Cloudy,0,2013-10-09 06:46:00
2:49 AM,39.2,37.4,93,30.37,0.8,Calm,Calm,-,N/A,,Mist,0,2013-10-09 06:49:00
2:52 AM,39.9,37.9,93,30.37,0.5,Calm,Calm,-,N/A,Fog,Fog,0,2013-10-09 06:52:00
3:00 AM,39.0,37.0,93,30.37,1.2,Calm,Calm,-,N/A,,Clear,0,2013-10-09 07:00:00
3:02 AM,39.0,37.0,93,30.37,2.0,Calm,Calm,-,N/A,,Clear,0,2013-10-09 07:02:00
3:10 AM,39.0,37.0,93,30.37,9.0,Calm,Calm,-,N/A,,Clear,0,2013-10-09 07:10:00
3:43 AM,39.0,37.0,93,30.37,1.5,Calm,Calm,-,N/A,,Clear,0,2013-10-09 07:43:00
3:50 AM,37.4,37.4,100,30.37,1.2,Calm,Calm,-,N/A,,Clear,0,2013-10-09 07:50:00
3:52 AM,37.9,36.0,93,30.38,1.5,Calm,Calm,-,N/A,,Clear,0,2013-10-09 07:52:00
3:55 AM,37.9,37.0,97,30.37,4.0,Calm,Calm,-,N/A,,Clear,0,2013-10-09 07:55:00
4:10 AM,37.9,37.0,97,30.38,1.8,Calm,Calm,-,N/A,,Clear,0,2013-10-09 08:10:00
4:18 AM,37.9,37.0,97,30.37,1.2,Calm,Calm,-,N/A,,Clear,0,2013-10-09 08:18:00
4:22 AM,37.9,36.0,93,30.38,2.0,Calm,Calm,-,N/A,,Clear,0,2013-10-09 08:22:00
4:30 AM,37.9,37.0,97,30.38,3.0,Calm,Calm,-,N/A,,Clear,0,2013-10-09 08:30:00
4:33 AM,37.9,37.0,97,30.38,1.8,Calm,Calm,-,N/A,,Clear,0,2013-10-09 08:33:00
4:43 AM,37.0,36.0,96,30.38,4.0,Calm,Calm,-,N/A,,Clear,0,2013-10-09 08:43:00
4:52 AM,37.0,36.0,96,30.38,4.0,Calm,Calm,-,N/A,,Clear,0,2013-10-09 08:52:00
5:05 AM,37.0,36.0,96,30.38,1.8,Calm,Calm,-,N/A,,Clear,0,2013-10-09 09:05:00
5:12 AM,37.9,36.0,93,30.38,0.8,Calm,Calm,-,N/A,,Clear,0,2013-10-09 09:12:00
5:23 AM,37.0,36.0,96,30.39,1.5,Calm,Calm,-,N/A,,Clear,0,2013-10-09 09:23:00
5:26 AM,37.0,36.0,96,30.38,3.0,Calm,Calm,-,N/A,,Clear,0,2013-10-09 09:26:00
5:52 AM,37.0,36.0,96,30.38,9.0,Calm,Calm,-,N/A,,Clear,0,2013-10-09 09:52:00
6:52 AM,39.0,37.0,93,30.40,10.0,Calm,Calm,-,N/A,,Clear,0,2013-10-09 10:52:00
7:52 AM,46.0,44.1,93,30.42,10.0,Calm,Calm,-,N/A,,Clear,0,2013-10-09 11:52:00
8:52 AM,55.9,46.9,72,30.43,10.0,Variable,3.5,-,N/A,,Clear,0,2013-10-09 12:52:00
9:52 AM,61.0,45.0,56,30.44,10.0,East,11.5,19.6,N/A,,Mostly Cloudy,80,2013-10-09 13:52:00
10:52 AM,62.1,43.0,50,30.44,10.0,ENE,11.5,20.7,N/A,,Clear,70,2013-10-09 14:52:00
11:52 AM,63.0,44.1,50,30.43,10.0,Variable,6.9,18.4,N/A,,Clear,0,2013-10-09 15:52:00
12:52 PM,64.0,45.0,50,30.41,10.0,East,12.7,18.4,N/A,,Clear,90,2013-10-09 16:52:00
1:52 PM,63.0,43.0,48,30.41,10.0,East,10.4,17.3,N/A,,Clear,80,2013-10-09 17:52:00
2:52 PM,62.1,42.1,48,30.39,10.0,East,6.9,17.3,N/A,,Clear,80,2013-10-09 18:52:00
3:52 PM,61.0,42.1,50,30.39,10.0,East,6.9,-,N/A,,Clear,90,2013-10-09 19:52:00
4:52 PM,57.9,44.1,60,30.39,10.0,East,6.9,-,N/A,,Clear,80,2013-10-09 20:52:00
5:52 PM,55.9,45.0,67,30.39,10.0,NE,3.5,-,N/A,,Clear,50,2013-10-09 21:52:00
6:52 PM,48.9,45.0,86,30.37,10.0,Calm,Calm,-,N/A,,Clear,0,2013-10-09 22:52:00
7:52 PM,45.0,43.0,93,30.37,10.0,Calm,Calm,-,N/A,,Clear,0,2013-10-09 23:52:00
8:52 PM,43.0,42.1,97,30.37,10.0,Calm,Calm,-,N/A,,Clear,0,2013-10-10 00:52:00
9:52 PM,43.0,41.0,93,30.37,10.0,Calm,Calm,-,N/A,,Clear,0,2013-10-10 01:52:00
10:19 PM,42.1,41.0,96,30.36,1.8,Calm,Calm,-,N/A,,Clear,0,2013-10-10 02:19:00
10:26 PM,42.1,41.0,96,30.36,3.0,Calm,Calm,-,N/A,,Clear,0,2013-10-10 02:26:00
10:37 PM,42.1,41.0,96,30.36,1.8,Calm,Calm,-,N/A,,Clear,0,2013-10-10 02:37:00
10:52 PM,42.1,39.9,92,30.37,1.0,Calm,Calm,-,N/A,,Clear,0,2013-10-10 02:52:00
11:19 PM,42.1,39.9,92,30.35,2.0,Calm,Calm,-,N/A,,Clear,0,2013-10-10 03:19:00
11:27 PM,42.1,39.9,92,30.35,3.0,Calm,Calm,-,N/A,,Clear,0,2013-10-10 03:27:00
11:29 PM,42.1,39.9,92,30.35,1.5,Calm,Calm,-,N/A,,Clear,0,2013-10-10 03:29:00
11:36 PM,42.1,39.9,92,30.36,1.0,Calm,Calm,-,N/A,,Clear,0,2013-10-10 03:36:00
11:39 PM,42.1,39.9,92,30.36,2.0,Calm,Calm,-,N/A,,Clear,0,2013-10-10 03:39:00
11:52 PM,42.1,39.9,92,30.35,5.0,Calm,Calm,-,N/A,,Clear,0,2013-10-10 03:52:00
11:58 PM,42.1,39.9,92,30.35,1.8,Calm,Calm,-,N/A,,Clear,0,2013-10-10 03:58:00